Theta_e
286 287 286 286 286 285 285 284 283 283 282 283 284 281 283 284 285 285 281 283 285 287 287 288 291 293 293 294 295 295 295 295 296 296 296 297 296 295 295 295 295 296 296 298 300 307 311 312 312 312 312 312 311 312 311 311 310 309 308 308 308 307
285 284 284 284 284 284 283 283 283 283 282 281 283 283 282 284 283 281 284 283 280 281 283 285 289 292 293 294 294 294 294 295 295 296 296 296 296 295 295 294 294 294 295 297 298 303 311 311 312 312 312 311 311 310 311 311 310 309 308 307 307 306
285 285 284 283 283 283 282 281 280 281 281 281 280 282 279 279 282 282 279 281 280 280 280 281 282 283 290 292 293 294 294 295 296 296 296 296 295 295 294 293 293 294 294 295 296 299 307 311 311 312 311 310 310 310 310 310 309 308 308 306 303 304
284 283 283 283 282 280 280 281 280 280 280 281 280 279 281 279 279 282 278 277 279 279 279 279 280 282 284 288 292 293 294 295 296 296 296 295 295 295 294 294 293 293 294 294 295 297 303 310 311 311 311 309 309 309 310 309 308 307 307 305 303 303
283 283 282 281 280 280 279 277 277 278 278 277 277 278 278 279 280 279 283 278 277 278 279 278 279 280 282 283 284 290 293 294 295 296 296 296 295 295 295 294 293 293 293 293 294 295 300 308 310 310 310 309 309 308 308 309 308 307 305 304 304 303
282 281 280 279 279 278 277 277 278 279 280 279 279 277 277 279 277 277 280 281 277 276 277 277 278 278 280 281 282 283 289 294 295 295 296 296 295 294 294 295 294 293 292 292 293 294 298 305 309 309 309 309 309 308 308 308 308 307 306 305 305 304
280 279 279 278 278 278 277 277 277 277 276 277 275 277 279 275 276 276 277 275 274 275 275 276 277 277 278 280 282 283 286 290 293 294 294 295 295 294 294 294 294 292 292 292 292 293 296 303 308 308 308 309 309 308 308 308 307 307 307 306 305 303
279 278 278 279 278 277 276 276 275 275 274 274 275 275 274 275 275 275 274 274 273 274 275 275 276 276 277 278 279 280 282 286 290 292 294 295 294 294 294 293 293 292 291 291 292 292 294 299 306 308 308 308 309 308 308 307 307 307 307 306 306 305
278 278 277 277 276 276 276 275 275 275 273 273 274 274 274 275 274 273 273 273 273 273 273 275 276 276 276 277 278 279 280 281 281 283 290 293 294 293 292 292 291 291 290 290 291 291 292 296 303 308 307 307 308 308 307 306 306 306 307 306 306 305
277 277 277 277 276 275 278 279 275 274 273 272 272 272 273 272 272 272 272 272 273 272 273 274 275 276 277 278 278 278 278 279 280 282 285 291 292 292 292 291 291 291 290 290 290 291 292 294 300 306 307 306 307 307 306 306 305 305 306 306 306 305
276 276 275 275 274 274 274 273 274 273 272 272 271 271 271 272 272 271 271 271 271 272 273 273 274 276 276 277 277 277 278 278 280 281 282 287 291 292 292 291 290 290 289 290 290 290 291 293 298 305 306 306 306 307 305 305 304 305 305 305 305 305
276 275 275 274 274 273 273 275 274 271 270 270 270 270 271 271 271 270 270 270 271 272 272 273 274 275 276 276 276 276 277 278 278 279 281 283 288 290 290 290 290 289 289 289 289 289 291 293 298 300 300 302 305 306 305 305 304 304 304 304 304 304
275 275 274 273 273 272 272 271 271 271 270 270 270 270 270 270 269 269 269 269 270 271 271 272 272 273 274 275 276 276 277 277 277 278 279 281 283 286 288 288 288 288 289 289 289 289 290 292 296 299 300 301 301 305 305 303 302 302 303 303 302 302
274 274 273 272 272 272 271 270 270 269 269 269 269 269 269 269 269 268 269 269 269 270 270 271 271 272 273 274 275 276 276 277 277 277 278 278 280 283 286 286 287 288 288 288 289 289 289 291 293 298 300 300 301 301 304 304 301 300 302 302 302 302
273 273 273 272 272 271 271 271 269 268 268 268 269 269 268 268 268 268 268 268 269 269 270 270 270 271 273 274 275 276 276 276 276 276 277 277 280 282 283 285 286 287 288 288 288 288 289 290 293 297 299 300 300 300 302 301 302 299 299 301 301 301
273 273 272 272 272 271 271 272 270 269 269 268 268 267 267 267 267 267 267 268 268 269 269 270 270 270 272 274 275 275 275 276 276 276 277 278 280 282 283 285 285 286 287 287 287 288 289 290 292 296 298 299 299 300 301 302 300 300 301 301 301 300
272 272 271 271 271 271 271 271 270 269 268 268 267 266 266 266 266 266 267 267 267 268 269 269 269 270 271 273 274 275 275 276 276 276 277 278 280 281 282 284 284 285 286 287 287 288 288 290 292 296 298 299 299 300 301 302 300 299 299 300 300 300
271 271 271 271 270 270 270 269 269 268 267 267 266 266 266 266 265 265 266 266 267 268 268 268 269 269 270 270 272 274 275 276 276 276 277 278 280 282 284 285 286 286 286 287 287 287 288 289 292 295 297 298 299 299 299 299 298 297 297 298 297 298
271 271 270 270 269 269 268 268 268 267 266 266 266 265 265 265 264 265 265 266 266 267 268 268 268 268 268 269 270 272 275 276 276 277 277 277 280 283 283 284 285 286 286 287 287 287 288 289 291 295 297 298 299 298 299 297 297 296 296 296 297 297
271 270 269 269 268 268 268 268 267 266 265 265 265 264 264 264 263 264 265 265 266 266 267 267 267 267 267 268 269 271 273 276 277 277 279 278 280 283 284 285 286 287 287 287 287 288 288 289 292 295 296 297 298 297 297 297 297 295 295 295 295 295
269 269 268 268 267 268 268 267 266 265 264 264 264 264 263 263 263 263 264 264 265 266 266 266 267 267 267 267 268 270 272 275 276 278 280 280 282 284 286 287 287 287 288 288 288 288 288 289 291 294 296 297 297 296 297 298 296 294 294 295 294 294
268 267 266 266 266 267 266 266 265 264 263 263 264 262 262 262 263 263 264 265 265 265 265 266 266 266 266 267 268 269 271 274 277 278 278 280 281 283 286 288 287 287 287 288 288 288 289 290 292 292 296 296 297 297 297 298 296 294 293 294 294 293
266 266 265 266 266 266 266 265 264 263 263 263 262 262 262 263 263 263 264 264 264 264 265 265 266 266 266 267 268 269 270 273 276 278 279 279 281 285 287 286 286 286 287 287 288 289 289 291 292 292 295 296 297 297 297 297 296 295 294 294 293 293
265 265 265 265 265 265 265 264 263 262 262 262 261 262 263 263 263 263 263 263 263 264 264 265 265 266 266 267 268 269 270 273 277 279 280 281 282 285 285 286 286 286 286 287 288 289 290 291 291 293 294 296 296 296 296 297 295 295 294 294 293 293
264 264 264 264 265 265 264 263 262 262 261 260 261 262 262 262 262 262 262 262 263 263 264 265 265 266 267 267 269 269 270 273 277 280 281 281 282 283 284 285 285 285 286 287 288 290 291 292 292 292 293 295 296 296 296 297 295 296 294 294 293 293
263 263 263 264 264 264 264 263 261 261 260 260 262 262 262 262 262 262 261 262 263 263 264 265 266 267 267 268 269 270 271 274 278 280 281 282 282 283 283 284 285 285 286 286 288 290 291 292 292 292 293 294 295 296 297 297 296 296 294 295 295 294
262 262 262 263 263 263 263 263 261 260 259 260 261 261 260 261 261 260 261 261 262 264 265 266 266 267 268 269 270 270 272 275 279 280 282 282 282 283 283 284 285 285 286 287 288 290 290 291 292 292 292 293 294 296 296 296 296 296 296 294 294 295
261 261 260 261 262 262 262 262 261 259 259 260 260 260 260 260 260 260 260 261 263 265 268 268 269 269 269 270 271 273 274 277 281 282 282 283 283 284 284 284 285 286 287 287 289 289 290 291 291 291 292 292 293 294 295 295 295 295 294 294 294 294
260 259 260 259 261 261 261 261 261 260 260 260 260 260 259 259 259 260 260 261 264 266 269 270 270 271 272 273 275 277 279 281 282 283 283 284 284 284 285 285 285 286 287 287 288 289 289 290 290 291 291 292 293 294 294 295 294 293 293 294 293 293
259 259 259 259 260 261 260 260 260 260 259 260 260 259 259 259 259 259 260 262 265 267 268 269 271 272 274 276 277 279 281 283 284 283 283 284 284 284 285 285 286 286 287 287 288 288 289 289 290 290 290 291 292 293 294 294 294 293 294 294 294 293
258 259 258 259 260 260 259 259 259 259 259 259 259 259 258 258 259 260 261 263 265 266 267 268 269 270 271 274 278 281 282 283 285 285 285 286 286 286 286 286 287 287 288 288 288 288 288 289 289 290 291 290 292 291 292 293 293 294 294 293 293 290
258 258 258 258 259 259 258 258 258 258 258 258 258 258 257 257 258 260 261 263 265 265 266 266 267 268 270 272 274 278 282 285 286 286 286 286 287 287 288 288 287 288 288 288 289 290 289 289 290 291 292 292 292 292 293 293 294 294 293 293 293 292
258 258 257 258 258 258 257 257 257 257 258 258 258 257 257 257 258 260 261 263 264 265 265 266 266 267 269 270 272 275 279 283 285 287 288 287 287 288 288 289 289 290 290 289 289 289 291 291 291 292 292 292 292 292 293 293 293 293 293 293 291 291
257 257 257 257 257 257 256 256 256 257 257 257 257 257 257 257 258 259 260 262 263 264 265 265 265 266 267 268 270 273 277 279 282 285 287 287 287 287 288 288 289 289 290 290 290 289 289 290 291 291 291 291 291 292 292 293 293 293 293 293 293 291
257 257 257 256 256 256 255 255 255 256 256 256 257 257 256 257 258 259 260 262 263 263 264 264 264 265 266 266 267 269 271 273 275 277 280 286 287 287 287 288 289 289 290 290 290 290 290 290 290 291 291 291 291 292 292 292 293 294 293 293 292 291
257 256 256 256 255 255 255 254 255 256 256 256 256 256 256 257 258 259 260 261 262 262 262 263 263 264 264 265 265 266 268 269 270 271 272 274 277 281 285 287 289 289 289 290 290 290 291 290 290 291 290 290 291 291 292 292 291 293 294 292 291 292
256 256 255 255 255 254 254 254 254 255 255 255 256 256 256 257 258 259 261 262 263 262 262 262 262 263 263 263 263 264 265 265 266 268 267 268 269 271 271 272 273 277 278 284 289 290 291 290 291 291 291 291 291 291 292 292 291 290 291 291 292 292
255 255 255 255 254 253 253 253 255 255 255 255 255 255 256 257 257 258 259 260 261 261 261 261 261 262 262 262 262 262 263 264 264 264 264 264 265 266 266 267 268 271 274 275 276 278 286 291 291 290 290 291 291 291 292 289 289 289 290 290 291 291
Wind_Speed
23 23 26 26 25 25 26 19 21 23 23 28 25 25 29 27 22 21 19 24 21 19 17 21 22 20 19 18 17 17 17 17 17 13 9 7 5 5 6 7 8 9 11 11 13 14 17 17 18 18 16 17 15 18 18 19 19 17 17 15 15 14
24 26 28 29 26 23 22 26 25 24 21 26 28 23 26 26 22 23 24 17 18 20 21 22 23 22 19 18 16 16 17 17 17 15 10 8 6 5 6 7 8 8 10 11 12 14 17 17 17 18 18 17 16 15 17 19 19 19 18 16 14 14
23 23 21 21 24 23 19 18 21 19 17 16 24 27 23 26 27 19 23 23 20 23 23 21 20 25 23 20 18 17 16 17 15 15 10 8 7 5 6 7 7 8 8 11 12 14 16 17 18 18 17 16 17 16 18 19 19 20 17 17 16 14
23 24 23 21 20 22 26 24 17 23 22 30 23 26 23 21 26 15 11 19 21 22 21 22 21 19 21 23 22 18 16 15 14 13 11 10 8 6 6 6 7 7 8 10 12 14 16 18 17 18 16 16 17 18 17 19 20 20 18 17 18 16
23 22 23 23 24 23 18 17 21 23 22 22 24 24 24 26 23 23 23 18 24 23 20 20 20 19 20 20 20 22 18 14 16 13 13 11 8 7 5 5 7 8 7 10 11 13 15 16 17 18 18 17 18 18 18 19 21 21 20 19 20 19
22 21 22 23 21 20 25 25 16 19 24 26 24 24 28 24 21 24 26 18 18 23 22 20 19 21 20 19 17 20 22 18 14 13 13 12 8 6 5 5 6 8 8 9 11 12 14 15 16 17 19 20 19 19 19 18 20 20 21 21 20 19
23 22 22 22 23 21 22 22 24 25 26 24 23 27 24 22 23 23 22 22 24 22 22 22 20 19 19 20 17 19 21 19 16 13 14 12 8 6 6 5 5 7 8 9 10 12 14 14 18 17 19 19 19 20 19 19 20 20 21 21 20 20
21 22 23 22 23 22 17 14 20 27 23 24 25 23 23 24 22 21 23 22 22 22 23 21 19 19 19 18 18 20 19 20 18 16 12 10 8 6 6 7 5 6 9 9 10 12 13 13 15 19 19 19 19 19 19 18 19 20 20 20 20 21
24 23 23 20 19 22 25 29 29 26 26 27 25 22 24 24 22 22 23 23 23 22 21 21 20 19 18 17 17 17 17 18 17 19 19 13 10 8 6 5 7 7 9 9 10 12 13 14 14 17 19 20 19 19 19 18 19 20 19 20 21 21
23 23 24 25 25 23 20 24 24 27 25 26 24 24 23 19 21 23 23 21 22 22 23 21 20 19 19 19 18 17 17 17 18 17 18 16 12 10 8 7 8 8 8 9 10 12 12 13 15 17 16 17 18 18 19 19 20 19 19 20 20 20
22 23 23 23 24 26 28 25 26 25 26 24 24 23 22 22 22 23 22 22 22 22 22 22 20 18 18 20 19 19 17 17 17 17 17 17 15 10 7 7 8 8 10 10 10 12 12 13 14 15 18 18 19 18 19 20 20 20 20 19 20 19
23 23 24 24 25 26 27 29 28 27 26 27 26 23 22 21 23 22 23 22 22 22 22 23 22 21 20 19 19 19 18 17 16 16 18 17 15 11 7 8 8 9 10 11 11 11 12 12 13 16 24 24 20 20 17 17 19 20 19 19 19 19
23 24 24 25 26 26 21 22 27 27 27 25 25 25 23 23 23 22 22 23 22 22 22 22 22 22 22 20 19 17 18 18 16 16 17 17 17 15 12 10 11 10 10 11 11 12 13 13 14 20 24 26 27 21 18 17 17 18 19 18 19 19
24 24 24 25 25 26 23 25 27 26 26 26 24 23 25 23 23 24 24 23 23 22 23 21 22 22 22 21 19 17 17 17 17 17 17 17 18 17 13 13 13 12 11 10 11 12 13 14 19 22 25 27 27 24 19 17 15 16 17 17 18 17
23 23 23 23 22 23 26 26 27 25 24 27 27 26 24 24 23 23 24 23 22 22 21 21 21 22 20 20 19 17 16 17 17 17 17 18 17 16 16 15 13 13 12 11 12 12 13 14 20 23 26 29 29 28 23 15 17 16 16 17 17 17
20 21 22 23 23 23 24 26 25 25 25 22 22 23 25 25 23 22 22 22 22 22 21 21 20 21 21 18 18 17 17 16 18 17 16 15 16 16 16 14 13 12 12 12 12 12 13 14 20 24 26 30 31 30 25 17 17 17 18 18 17 15
23 23 24 23 23 23 25 28 25 23 22 23 26 24 23 23 23 22 22 22 22 21 20 21 20 21 19 19 19 18 17 15 16 17 15 15 16 16 15 14 14 13 13 12 11 11 13 14 23 24 26 29 31 31 26 17 16 15 15 16 17 17
22 23 23 22 22 22 23 24 25 26 26 24 23 24 24 23 22 22 22 22 22 21 20 20 20 20 20 19 20 20 18 16 15 16 16 16 15 15 14 13 12 12 12 11 11 12 13 15 24 24 26 30 30 31 20 16 16 15 15 15 15 15
21 22 21 21 21 21 22 24 24 23 25 23 21 22 21 20 21 21 21 21 22 22 21 20 20 21 21 20 19 21 19 16 16 16 14 15 17 15 14 14 12 11 11 12 11 12 13 14 20 23 28 29 31 27 17 15 14 14 15 14 13 14
20 21 20 23 23 22 22 22 23 25 23 24 24 24 22 22 22 22 22 22 22 22 21 20 20 21 21 20 19 19 19 17 15 14 13 15 16 16 14 12 12 11 10 11 12 12 12 14 18 22 27 31 31 26 18 14 14 13 14 13 13 11
21 21 21 21 22 22 25 27 26 22 23 23 23 24 23 21 21 21 21 22 22 21 20 20 20 20 20 20 20 19 20 19 16 13 13 13 14 15 11 10 9 8 8 9 11 14 15 14 17 21 27 30 31 26 17 15 13 14 13 13 12 11
21 22 22 23 23 24 27 25 23 22 20 22 22 22 22 22 24 24 23 23 23 21 20 18 20 20 20 20 20 19 18 17 14 13 13 14 14 15 14 9 8 8 8 8 9 11 13 14 14 16 27 28 29 29 18 14 15 15 15 14 14 12
20 21 22 20 22 22 23 21 22 23 22 23 24 26 25 24 23 23 22 21 21 21 22 20 18 20 21 19 19 18 18 17 15 13 11 13 14 14 9 6 5 7 9 9 10 11 12 12 13 14 26 28 30 30 24 14 16 15 15 14 13 13
19 22 23 21 20 20 20 20 23 22 23 22 23 25 25 25 25 24 23 23 23 22 20 20 20 19 17 17 17 17 18 17 16 14 13 11 12 11 7 5 6 7 8 9 10 10 11 12 17 11 22 28 29 29 29 17 15 15 15 14 13 13
20 20 23 21 20 18 19 22 22 21 22 23 26 26 25 24 24 24 23 23 23 22 22 20 19 18 15 15 16 17 18 17 15 13 12 13 13 12 10 8 7 7 9 9 9 9 9 10 10 16 17 27 30 31 29 25 17 21 16 15 15 15
19 20 21 20 18 20 21 18 19 21 24 26 25 25 24 24 23 24 24 21 20 20 19 18 17 15 14 15 15 15 16 17 15 12 10 10 10 10 9 7 6 7 8 8 8 7 7 8 8 12 19 21 29 29 30 26 23 23 16 15 14 13
21 22 23 21 21 19 18 18 22 25 25 24 24 25 25 25 25 24 23 21 19 18 16 14 13 13 12 13 13 14 14 16 14 12 11 10 10 10 9 7 6 7 8 7 7 6 6 6 7 8 14 22 26 29 29 26 25 25 23 16 11 13
19 19 21 24 21 19 19 20 19 23 25 24 23 24 25 25 26 26 24 22 17 19 19 17 17 14 13 13 11 12 12 13 12 11 10 9 9 8 8 7 6 6 7 7 6 5 5 5 5 6 9 12 19 22 26 25 24 25 23 19 13 17
18 20 22 24 21 20 22 20 18 19 21 23 23 24 26 24 24 23 22 19 18 17 18 19 16 12 9 8 9 10 11 11 10 10 10 8 7 7 7 6 6 6 7 6 5 4 4 5 5 5 5 8 10 11 17 21 17 21 20 15 11 14
17 20 22 21 20 20 20 19 19 19 21 20 21 23 25 24 22 21 21 21 17 15 16 18 23 22 15 11 9 9 10 9 9 10 9 8 8 8 7 6 6 6 6 5 4 4 4 6 5 6 7 8 9 10 11 13 13 13 13 13 11 11
18 19 20 20 19 19 19 20 20 20 21 20 20 22 24 23 25 22 21 19 17 17 18 17 17 17 16 15 14 10 9 10 7 8 9 9 8 7 7 6 7 7 5 5 4 5 6 6 7 8 7 8 10 10 10 10 11 11 10 12 13 9
17 19 20 18 18 18 19 20 20 20 19 19 19 21 22 23 21 20 19 18 18 18 18 18 18 17 16 15 14 14 12 12 16 13 10 8 10 15 15 11 8 6 4 5 4 5 6 6 4 9 12 12 13 13 15 14 14 13 10 13 18 14
17 17 18 18 17 18 19 19 18 19 20 20 20 20 20 21 18 18 17 18 17 21 20 18 17 17 16 15 14 14 14 13 9 15 20 19 16 13 13 15 16 14 9 5 5 4 6 6 13 17 16 16 16 15 15 15 18 20 20 21 16 12
16 17 18 17 17 18 19 19 18 18 19 19 20 20 19 20 17 16 17 17 18 21 20 17 17 17 16 16 15 14 14 14 13 7 9 16 17 18 17 15 14 14 13 11 8 4 2 7 13 15 16 17 19 18 17 18 18 19 21 23 21 13
14 14 15 16 18 19 19 18 18 19 20 20 19 19 19 20 18 18 17 17 19 19 19 18 17 16 16 17 17 16 16 14 13 13 12 6 12 16 15 15 14 12 12 12 10 10 7 6 8 13 14 16 18 19 19 18 20 22 23 22 15 12
14 14 14 16 18 18 17 18 18 20 20 20 19 18 16 17 18 18 15 17 20 19 18 18 17 16 17 16 16 15 15 15 14 14 12 12 13 12 9 10 10 10 12 10 10 11 10 10 11 13 14 15 16 18 19 19 15 20 25 23 15 14
13 13 14 16 16 16 15 17 19 20 20 20 21 19 16 18 19 16 18 28 24 17 17 17 17 17 17 17 17 16 16 15 16 13 14 14 12 11 11 11 13 20 30 15 6 10 10 10 12 11 12 13 15 16 17 16 10 11 13 14 13 13
12 12 14 14 14 14 16 17 18 19 20 20 22 19 15 16 16 16 14 15 20 18 16 16 16 16 16 17 16 15 14 15 15 15 14 13 12 12 12 12 12 10 13 27 27 36 13 10 7 6 6 10 14 15 14 9 9 10 11 12 11 9
Wind_Direction
323 324 324 324 323 325 324 324 321 316 315 315 322 316 316 317 319 313 306 310 316 308 284 280 286 283 278 277 275 273 269 268 267 257 251 246 218 252 267 279 289 290 290 290 289 267 229 197 187 188 184 181 185 184 182 180 172 175 179 180 174 175
328 328 327 325 323 322 327 327 320 315 323 319 315 320 309 307 303 308 303 305 312 310 315 316 310 301 288 278 276 273 270 268 267 259 252 246 238 231 256 272 282 285 289 292 291 283 237 204 189 187 186 183 187 183 182 180 175 175 179 178 177 172
324 322 321 323 326 324 318 317 320 314 306 310 316 315 319 314 311 309 308 315 307 308 313 315 315 309 306 299 283 276 271 269 266 262 252 252 243 214 242 264 275 281 285 287 289 287 265 218 191 186 186 184 184 182 182 181 177 176 179 175 177 175
323 323 323 321 320 323 328 324 309 321 324 326 327 312 313 308 306 317 318 306 304 303 306 308 310 304 303 307 302 285 274 267 264 260 252 246 240 211 227 256 272 278 282 285 287 287 273 234 200 186 184 183 183 182 182 180 179 179 178 177 176 177
323 323 321 321 323 321 320 323 322 326 328 322 320 314 311 315 311 307 303 312 306 303 303 304 303 304 302 303 305 303 289 274 271 264 259 250 238 231 214 231 264 278 281 282 284 286 282 247 207 188 185 185 185 181 182 181 180 179 179 181 180 178
322 322 322 321 321 327 328 324 310 320 330 325 322 316 316 313 311 313 313 311 303 303 302 300 301 304 303 299 297 296 300 291 278 275 269 256 235 241 234 206 242 277 278 279 281 283 282 258 223 192 187 186 184 183 183 182 182 182 182 182 181 180
324 323 323 322 322 323 326 325 325 327 321 322 318 318 318 314 316 310 301 304 304 301 300 299 299 299 299 300 300 298 295 293 286 277 270 261 236 232 245 240 224 267 274 277 281 285 284 267 225 200 190 187 185 184 184 183 183 184 184 183 182 180
320 322 324 326 326 323 313 308 326 325 320 318 320 314 313 314 312 308 308 308 301 301 298 298 297 297 297 298 301 304 305 302 303 295 273 262 240 235 236 252 254 266 276 277 281 282 283 280 243 205 189 187 186 184 183 182 184 185 184 183 182 183
320 320 321 319 317 328 333 333 329 327 321 320 318 315 314 312 309 308 307 304 301 299 299 300 298 297 296 297 296 296 298 302 305 306 299 278 256 249 242 240 259 266 274 279 283 282 284 285 262 222 192 184 184 183 183 182 184 184 184 184 183 184
317 320 322 328 331 325 316 329 330 324 323 321 319 316 313 308 310 309 305 303 302 300 301 299 299 298 296 294 293 292 293 293 294 292 293 295 277 257 249 255 263 271 274 279 280 282 285 284 270 228 200 183 182 184 184 182 183 183 185 184 184 184
314 315 319 324 324 326 332 330 328 325 321 320 317 315 311 312 309 306 305 304 301 300 300 300 299 296 296 297 294 291 289 291 292 291 287 289 284 264 254 260 268 275 279 280 279 285 286 282 272 231 197 184 184 186 185 183 182 182 183 185 185 185
314 316 318 320 322 325 327 328 328 324 320 318 316 314 312 312 307 304 303 301 299 299 300 300 298 296 295 294 292 289 291 289 290 292 289 283 284 278 263 268 268 270 274 281 284 285 285 282 276 237 207 184 182 185 184 184 183 182 182 184 185 184
315 317 319 321 322 322 323 323 323 320 317 317 316 315 313 310 305 303 302 301 300 300 299 298 296 294 292 290 288 289 288 287 285 284 284 283 278 278 278 272 272 270 271 273 279 283 283 282 276 245 210 191 182 181 182 184 184 182 181 184 184 184
317 319 319 319 320 321 323 326 325 320 317 315 315 316 316 310 306 304 301 300 300 298 296 295 294 291 286 285 285 285 284 282 282 281 280 280 276 272 273 272 268 269 270 270 271 273 276 280 277 255 212 194 184 181 180 182 181 182 183 185 185 185
315 315 316 316 318 319 322 325 323 320 318 318 315 313 312 310 305 301 300 299 298 296 295 294 295 293 288 283 282 281 281 281 279 278 278 275 272 269 264 262 264 264 265 265 267 270 273 278 276 263 214 194 185 182 179 181 179 180 186 185 184 184
313 313 314 314 314 315 316 323 318 315 316 314 317 314 309 306 304 302 299 299 298 297 295 294 292 290 288 284 278 276 274 276 276 275 276 277 274 266 259 255 257 260 260 261 263 268 273 273 277 263 217 196 184 181 179 178 180 183 186 185 182 182
314 315 318 321 321 319 322 324 322 318 315 313 310 310 311 309 304 302 301 298 297 296 295 295 293 291 293 295 287 273 268 266 273 272 275 275 268 262 258 256 255 255 255 257 259 265 269 273 273 261 214 197 185 179 179 178 179 181 184 186 184 184
314 316 317 318 318 317 322 321 321 315 313 317 315 315 313 308 305 303 302 300 299 297 295 294 294 294 294 295 295 285 268 268 270 272 273 271 264 258 257 251 246 248 252 256 260 263 266 270 270 254 212 194 184 178 180 177 178 178 182 185 186 184
313 314 315 314 316 317 320 325 323 318 315 315 313 307 305 307 304 303 302 300 300 299 298 296 295 294 292 291 289 288 280 272 273 272 268 268 273 262 249 248 244 246 250 253 252 256 262 267 266 247 206 193 185 177 181 176 176 178 180 184 184 185
316 317 319 319 318 318 324 324 322 316 308 311 315 318 315 313 310 308 305 301 300 298 296 294 291 290 289 288 285 284 285 278 274 274 264 264 267 261 245 242 242 240 241 245 253 252 260 263 260 236 205 189 184 178 178 174 175 178 179 180 181 179
320 317 317 316 314 321 325 323 321 319 317 317 318 318 311 306 304 305 303 300 298 296 294 291 289 287 286 285 284 285 283 273 264 264 266 264 269 273 257 236 237 239 240 245 252 257 254 256 255 231 201 189 182 178 176 173 171 174 178 176 179 182
322 322 323 321 321 325 325 324 325 323 314 307 307 309 311 314 314 310 304 300 298 296 293 289 284 281 281 280 279 278 279 280 270 260 263 267 264 261 252 234 233 242 251 250 256 258 249 246 244 225 203 187 183 179 174 171 171 175 176 178 177 177
323 317 316 316 318 321 324 323 324 319 315 317 319 316 315 311 305 303 305 302 298 294 290 286 279 277 276 274 275 276 275 273 269 263 257 264 269 258 236 234 245 255 262 261 261 258 247 236 231 219 200 187 181 180 175 177 177 174 172 175 175 179
315 314 314 317 315 320 322 321 318 319 327 323 315 314 311 311 312 306 302 300 297 291 285 281 278 274 272 272 271 271 270 270 262 254 256 257 266 271 261 253 258 262 268 272 263 253 243 229 221 208 202 186 180 180 180 176 180 171 168 171 176 181
320 318 314 316 318 321 323 321 321 324 319 317 318 318 317 313 307 309 307 301 293 287 282 277 271 270 268 267 267 267 269 269 266 258 253 256 260 265 266 260 259 264 270 271 263 247 231 221 216 203 199 191 180 182 184 179 171 168 168 172 178 182
318 316 314 313 317 322 326 328 320 319 324 322 321 319 313 311 316 313 304 298 295 287 280 273 270 262 257 259 263 265 265 267 264 258 258 254 253 258 257 254 256 261 265 265 263 240 221 215 204 205 199 194 186 183 184 180 171 171 177 178 179 177
318 315 312 315 318 321 325 325 323 326 323 322 325 321 320 317 308 306 305 299 292 288 280 271 269 265 264 261 257 260 261 262 257 254 254 252 250 247 248 251 250 258 264 261 251 234 213 210 207 195 201 199 190 186 185 180 175 179 175 176 175 172
314 312 313 314 319 323 327 329 331 323 320 321 323 325 320 314 316 313 306 302 301 310 310 304 300 283 263 258 252 250 252 259 260 251 250 245 240 238 239 243 244 249 253 254 241 224 208 203 197 194 194 203 196 187 184 183 179 179 178 176 170 173
321 320 320 317 321 326 329 328 323 321 319 322 325 322 321 321 313 310 309 306 310 308 320 323 319 308 277 257 264 260 261 256 249 250 252 247 243 239 239 241 240 241 243 244 230 213 197 194 194 183 182 192 195 195 186 183 181 177 175 174 165 166
320 317 319 317 320 325 324 322 324 322 322 325 325 326 324 319 317 315 305 304 314 322 328 327 326 326 316 300 282 282 281 263 237 241 242 241 237 235 238 233 236 234 230 228 216 199 185 191 194 189 179 184 189 192 186 185 179 174 177 175 171 169
319 318 316 317 319 322 320 324 324 324 330 327 328 329 327 321 318 312 307 312 324 330 333 330 326 323 321 319 311 286 266 271 264 241 240 235 228 228 234 235 240 237 231 218 210 194 195 185 197 203 184 173 178 181 176 183 183 173 174 168 146 129
317 318 318 316 319 322 322 322 322 328 328 330 332 331 329 323 318 319 321 323 330 334 334 334 329 326 324 320 316 315 300 261 249 249 248 252 229 227 230 232 239 236 227 231 226 204 196 199 188 142 150 158 167 179 183 177 169 167 150 145 143 144
319 318 318 319 323 320 323 320 324 327 331 334 333 334 330 323 320 322 324 328 335 337 335 333 329 327 324 322 319 314 311 309 270 239 242 244 250 242 232 231 237 245 244 231 239 237 246 171 148 157 165 166 170 177 183 177 170 163 157 150 145 155
324 328 323 323 323 323 322 321 320 327 330 331 332 336 332 327 325 325 325 326 334 337 338 335 331 330 333 332 329 327 333 334 328 301 233 237 244 246 244 242 237 238 244 241 238 238 252 188 174 170 170 170 171 173 177 177 171 166 160 161 156 161
322 318 319 322 320 323 321 320 322 329 331 333 332 332 333 325 320 324 325 330 338 338 339 339 338 339 342 339 339 341 344 342 344 348 348 311 244 243 243 241 245 247 242 241 251 244 213 189 184 178 173 173 178 176 177 180 176 168 164 159 165 173
316 315 320 322 322 323 323 326 329 336 335 336 333 328 322 318 320 326 330 339 340 342 342 342 340 344 346 342 343 346 348 349 351 353 354 356 4 1 347 334 309 273 249 255 261 249 225 195 187 185 178 178 178 180 179 177 182 178 170 169 177 182
311 314 321 321 323 324 329 331 332 333 335 337 339 334 324 327 327 327 337 343 347 349 345 341 341 346 348 348 349 351 355 353 354 359 6 9 7 3 360 357 360 8 10 0 277 250 223 201 195 186 185 184 182 181 179 173 171 178 181 185 190 185
307 318 317 322 322 326 331 332 334 335 337 339 341 333 326 330 329 332 341 343 347 351 346 345 345 346 354 357 350 353 355 358 2 5 4 2 6 8 4 360 358 344 350 14 15 6 342 209 208 196 197 202 189 181 165 165 175 185 193 195 194 192